Flag for Germany Weather past 2 weeks in Ettlingen, Baden-Württemberg, Germany

Now
66 °F

Scattered clouds.


Feels Like: 66 °F
Forecast: 47 / 67 °F
Wind: 2 mph from North

Location: Karlsruhe - Baden Wurttemberg

Current Time: Apr 26, 2015 at 7:31:29 PM

Latest Report: Apr 26, 2015 at 6:50 PM


Visibility: N/A

Pressure: 29.65 "Hg

Humidity: 56%

Dew point: 50 °F

Location of EttlingenLocation

Historic Weather in Ettlingen — Graph

°F

Ettlingen temperature yesterday

Maximum temperature yesterday: 64 °F (at 11:50 AM)
Minimum temperature yesterday: 43 °F (at 4:50 AM)
Average temperature yesterday: 57 °F

Past Weeks' High & Low Weather Summary

 TemperatureHumidityPressure
High79 °F (Apr 15, 3:50 PM)94% (Apr 12, 6:50 AM)30.45 "Hg (Apr 12, 6:50 AM)
Low36 °F (Apr 19, 6:50 AM)17% (Apr 15, 4:50 PM)29.65 "Hg (Apr 26, 5:50 PM)
Average57 °F52%30.13 "Hg
* Reported Apr 11 6:20 PM — Apr 26 6:20 PM, Ettlingen, Weather by CustomWeather, © 2015

Note: Actual official high and low records may vary slightly from our data, if they occured in-between our weather recording intervals... More about our weather records

Advertising

Ettlingen weather history for previous 24 hours

 ConditionsComfort  
Time TempWeatherWind HumidityBarometerVisibility
6:20 PM
Sun, Apr 26
68 °FScattered clouds.2 mph53%29.65 "HgN/A
5:50 PM70 °FScattered clouds.2 mph46%29.65 "HgN/A
5:20 PM68 °FScattered clouds.5 mph53%29.68 "HgN/A
4:50 PM72 °FScattered showers. Scattered clouds.3 mph41%29.68 "HgN/A
4:20 PM70 °FScattered showers. Scattered clouds.6 mph43%29.68 "HgN/A
3:50 PM72 °FScattered showers. Passing clouds.6 mph44%29.71 "HgN/A
3:20 PM70 °FScattered showers. Passing clouds.6 mph43%29.71 "HgN/A
2:50 PM70 °FPassing clouds.7 mph46%29.74 "HgN/A
2:20 PM70 °FPassing clouds.9 mph40%29.74 "HgN/A
1:50 PM70 °FPassing clouds.9 mph50%29.74 "HgN/A
1:20 PM68 °FPassing clouds.8 mph56%29.77 "HgN/A
12:50 PM68 °FPassing clouds.7 mph56%29.77 "HgN/A
12:20 PM66 °FPassing clouds.8 mph60%29.80 "HgN/A
11:50 AM66 °FPassing clouds.8 mph64%29.80 "HgN/A
11:20 AM66 °FPassing clouds.6 mph64%29.80 "HgN/A
10:50 AM64 °FPassing clouds.8 mph64%29.80 "HgN/A
10:20 AM63 °FPassing clouds.9 mph68%29.80 "HgN/A
9:50 AM63 °FPassing clouds.10 mph68%29.83 "HgN/A
9:20 AM61 °FPassing clouds.8 mph72%29.83 "HgN/A
8:50 AM59 °FSunny.8 mph77%29.83 "Hg10 mi
8:20 AM55 °FSunny.6 mph88%29.83 "Hg10 mi
7:50 AM55 °FSunny.5 mph88%29.83 "Hg10 mi
7:20 AM54 °FSunny.5 mph88%29.83 "Hg10 mi
6:50 AM54 °FClear.7 mph88%29.83 "Hg10 mi
6:20 AM52 °FClear.5 mph94%29.83 "Hg10 mi
5:50 AM52 °FClear.6 mph88%29.83 "Hg10 mi
5:20 AM52 °FPassing clouds.7 mph88%29.83 "HgN/A
4:50 AM52 °FPartly cloudy.6 mph88%29.83 "Hg6 mi
11:20 PM
Sat, Apr 25
55 °FScattered showers. Passing clouds.5 mph88%29.86 "Hg4 mi
10:50 PM55 °FScattered showers. Partly cloudy.5 mph88%29.86 "Hg4 mi
10:20 PM55 °FScattered showers. Passing clouds.3 mph88%29.86 "Hg4 mi
9:50 PM55 °FLight rain. Passing clouds.6 mph88%29.86 "Hg4 mi
9:20 PM55 °FRain. Broken clouds.8 mph94%29.86 "Hg2 mi
8:52 PM57 °FRain showers. Fog.6 mph88%29.86 "Hg2 mi
8:20 PM57 °FScattered showers. Broken clouds.3 mph88%29.83 "Hg6 mi
7:50 PM57 °FSprinkles. Broken clouds.5 mph88%29.83 "Hg4 mi
7:20 PM57 °FSprinkles. Partly sunny.6 mph88%29.83 "Hg4 mi
Weather by CustomWeather, © 2015

See weather overviewHow to use our weather pages